sat.trackr.live / text

‹ back to catalog

ONEWEB-0098

NORAD 45442 · 2020-020U

PAYLOAD ACTIVE UNKNOWN

§ Identity

Operator
Country
UK
Launch date
2020-03-21
Launch site
TYMSC
Launch vehicle
Mass (kg)
RCS (m²)

Purposes: comms

External: N2YO · Heavens-Above · Gunter

§ Orbital elements

Epoch: 2026-05-25T01:51:00.000576Z

Period
109.81 min
Inclination
87.8913°
Eccentricity
0.0001710
Mean motion
13.11415282 rev/d
Perigee alt
1,216.4 km
Apogee alt
1,219.0 km
Semi-major
7,595.8 km
B*
-1.4633e-3
RAAN
25.6651°
Arg perigee
80.7556°
Mean anomaly
279.3765°
Rev number
29,961

§ Raw data

ONEWEB-00981 45442U 20020U   26145.07708334 -.00000506  00000+0 -14633-2 0  99942 45442  87.8913  25.6651 0001710  80.7556 279.3765 13.11415282299616

JSON: /api/v1/satellites/45442 · /tle

For live sub-satellite position, see the globe view (requires WebGL).

§ Visibility from observer

Set your observer location to see the next 7 days of passes ≥ 10°. The values pass through the URL so the page stays shareable.

No JS? Fill the form by hand. The geolocation button needs JavaScript.